EPWR

Copernicus Wrocław Airport

Wrocław, Poland
Issued Wind Visibility Ceiling Temperature Dew Point Humidity Barometer
Jun-24
00:00 UTC
240°
5 KTS
10,000+ meters   16° C
61° F
14° C
57° F
88% 29.94" Hg
1014 hPa
VFR
Jun-23
23:30 UTC
230°
7 KTS
10,000+ meters   17° C
63° F
14° C
57° F
83% 29.94" Hg
1014 hPa
VFR
Jun-23
23:00 UTC
210°
3 KTS
10,000+ meters   16° C
61° F
14° C
57° F
88% 29.94" Hg
1014 hPa
VFR
Jun-23
22:30 UTC
220°
4 KTS
10,000+ meters   17° C
63° F
15° C
59° F
88% 29.94" Hg
1014 hPa
VFR
Jun-23
22:00 UTC
220°
4 KTS
10,000+ meters   16° C
61° F
14° C
57° F
88% 29.94" Hg
1014 hPa
VFR
Jun-23
21:30 UTC
220°
3 KTS
10,000+ meters   17° C
63° F
15° C
59° F
88% 29.94" Hg
1014 hPa
VFR
Jun-23
21:00 UTC
Varies @1 KTS 10,000+ meters   17° C
63° F
15° C
59° F
88% 29.94" Hg
1014 hPa
VFR
Jun-23
20:30 UTC
Varies @1 KTS 10,000+ meters   18° C
64° F
14° C
57° F
78% 29.94" Hg
1014 hPa
VFR
Jun-23
20:00 UTC
010°
3 KTS
10,000+ meters   18° C
64° F
14° C
57° F
78% 29.94" Hg
1014 hPa
VFR
Jun-23
19:30 UTC
300°
4 KTS
10,000+ meters   18° C
64° F
14° C
57° F
78% 29.91" Hg
1013 hPa
VFR
Jun-23
19:00 UTC
Varies @5 KTS 10,000+ meters   19° C
66° F
15° C
59° F
78% 29.91" Hg
1013 hPa
VFR
Jun-23
18:30 UTC
290°
5 KTS
10,000+ meters   20° C
68° F
15° C
59° F
73% 29.88" Hg
1012 hPa
VFR
Jun-23
18:00 UTC
280°
6 KTS
10,000+ meters   22° C
72° F
15° C
59° F
65% 29.88" Hg
1012 hPa
VFR
Jun-23
17:30 UTC
Varies @5 KTS 10,000+ meters   22° C
72° F
15° C
59° F
65% 29.88" Hg
1012 hPa
VFR
Jun-23
17:00 UTC
290°
9 KTS
10,000+ meters   23° C
73° F
15° C
59° F
61% 29.88" Hg
1012 hPa
VFR
Jun-23
16:30 UTC
300°
8 KTS
10,000+ meters   23° C
73° F
15° C
59° F
61% 29.88" Hg
1012 hPa
VFR
Jun-23
16:00 UTC
310°
13 KTS
10,000+ meters   23° C
73° F
15° C
59° F
61% 29.88" Hg
1012 hPa
VFR
Jun-23
15:30 UTC
300°
13 KTS
10,000+ meters   23° C
73° F
15° C
59° F
61% 29.88" Hg
1012 hPa
VFR
Jun-23
15:00 UTC
300°
12 KTS
10,000+ meters   22° C
72° F
16° C
61° F
69% 29.88" Hg
1012 hPa
VFR
Jun-23
14:30 UTC
310°
13 KTS
10,000+ meters   21° C
70° F
15° C
59° F
69% 29.88" Hg
1012 hPa
VFR
Jun-23
14:00 UTC
290°
15 KTS
10,000+ meters   21° C
70° F
15° C
59° F
69% 29.88" Hg
1012 hPa
VFR
Jun-23
13:30 UTC
300°
13 KTS
10,000+ meters   23° C
73° F
16° C
61° F
65% 29.85" Hg
1011 hPa
VFR
Jun-23
13:00 UTC
300°
14 KTS
10,000+ meters   21° C
70° F
16° C
61° F
73% 29.85" Hg
1011 hPa
VFR
Jun-23
12:30 UTC
290°
15 KTS
10,000+ meters Broken
4,000' AGL
20° C
68° F
16° C
61° F
78% 29.85" Hg
1011 hPa
VFR
Jun-23
12:00 UTC
290°
15 KTS
10,000+ meters Broken
2,000' AGL
20° C
68° F
17° C
63° F
83% 29.85" Hg
1011 hPa
MVFR
Jun-23
11:30 UTC
300°
14 KTS
10,000+ meters Broken
4,400' AGL
20° C
68° F
17° C
63° F
83% 29.85" Hg
1011 hPa
VFR
Jun-23
11:00 UTC
290°
15 KTS
10,000+ meters Broken
3,400' AGL
18° C
64° F
17° C
63° F
94% 29.85" Hg
1011 hPa
VFR
Jun-23
10:30 UTC
290°
15 KTS
3,492 meters Broken
500' AGL
18° C
64° F
17° C
63° F
94% 29.85" Hg
1011 hPa
IFR
Jun-23
10:00 UTC
290°
12 KTS
8,996 meters Broken
4,400' AGL
18° C
64° F
17° C
63° F
94% 29.82" Hg
1010 hPa
VFR
Jun-23
09:30 UTC
290°
15 KTS
6,003 meters Broken
3,200' AGL
18° C
64° F
16° C
61° F
88% 29.82" Hg
1010 hPa
MVFR
Jun-23
09:00 UTC
280°
21 KTS
10,000+ meters Broken
4,200' AGL
21° C
70° F
15° C
59° F
69% 29.82" Hg
1010 hPa
VFR
Jun-23
08:30 UTC
290°
19 KTS
10,000+ meters   22° C
72° F
15° C
59° F
65% 29.79" Hg
1009 hPa
VFR
Jun-23
08:00 UTC
300°
19 KTS
10,000+ meters   21° C
70° F
16° C
61° F
73% 29.76" Hg
1008 hPa
VFR
Jun-23
07:30 UTC
270°
12 KTS
10,000+ meters   20° C
68° F
16° C
61° F
78% 29.79" Hg
1009 hPa
VFR
Jun-23
07:00 UTC
290°
5 KTS
10,000+ meters Broken
2,100' AGL
18° C
64° F
16° C
61° F
88% 29.76" Hg
1008 hPa
MVFR
Jun-23
06:30 UTC
320°
6 KTS
10,000+ meters Broken
2,400' AGL
18° C
64° F
16° C
61° F
88% 29.76" Hg
1008 hPa
MVFR
Jun-23
06:00 UTC
330°
8 KTS
10,000+ meters Broken
2,700' AGL
18° C
64° F
16° C
61° F
88% 29.76" Hg
1008 hPa
MVFR
Jun-23
05:30 UTC
300°
8 KTS
10,000+ meters   19° C
66° F
16° C
61° F
83% 29.76" Hg
1008 hPa
VFR
Jun-23
05:00 UTC
250°
9 KTS
10,000+ meters   18° C
64° F
16° C
61° F
88% 29.73" Hg
1007 hPa
VFR
Jun-23
04:30 UTC
250°
5 KTS
10,000+ meters   18° C
64° F
16° C
61° F
88% 29.73" Hg
1007 hPa
VFR
Jun-23
04:00 UTC
230°
5 KTS
10,000+ meters   18° C
64° F
16° C
61° F
88% 29.7" Hg
1006 hPa
VFR
Jun-23
03:30 UTC
210°
7 KTS
10,000+ meters   17° C
63° F
16° C
61° F
94% 29.7" Hg
1006 hPa
VFR
Jun-23
03:00 UTC
200°
8 KTS
10,000+ meters   17° C
63° F
16° C
61° F
94% 29.7" Hg
1006 hPa
VFR
Jun-23
02:30 UTC
210°
7 KTS
10,000+ meters   17° C
63° F
16° C
61° F
94% 29.73" Hg
1007 hPa
VFR
Jun-23
02:00 UTC
230°
6 KTS
10,000+ meters   18° C
64° F
16° C
61° F
88% 29.73" Hg
1007 hPa
VFR
Jun-23
01:30 UTC
270°
7 KTS
10,000+ meters   18° C
64° F
16° C
61° F
88% 29.79" Hg
1009 hPa
VFR
Jun-23
01:00 UTC
280°
10 KTS
10,000+ meters   19° C
66° F
15° C
59° F
78% 29.82" Hg
1010 hPa
VFR
Jun-23
00:30 UTC
290°
6 KTS
10,000+ meters   19° C
66° F
15° C
59° F
78% 29.82" Hg
1010 hPa
VFR